Погода в Клоппенбурге

Германия     52°50′55″N   8°02′49″E
темп.,
°C
ветер,
м/с
пор.,
м/с
влажн.,
%
обл.,
%
осадки,
мм/ч
давл.,
гПа
погр.,
м
2 марта, вт
вт201:00+3в47890 0.0 1034122
04:00+2в36920 0.0 103398
07:00+2в34900 0.0 103366
10:00+6вюв35710 0.0 1033174
13:00+12вюв34560 0.0 1032403
16:00+13вюв35600 0.0 1031535
19:00+8вюв34790 0.0 103071
22:00+7юв34790 0.0 103047
3 марта, ср
ср301:00+6ююз23850 0.0 103025
04:00+5ююз33890 0.0 102834
07:00+5ююз34910 0.0 102853
10:00+9юз47770 0.0 1027313
13:00+13зюз57690 0.0 1027629
16:00+13з57700 0.0 1025972
19:00+8зсз478617 0.0 1025155
22:00+5сз339054 0.0 102484
4 марта, чт
чт401:00+4зсз339336 0.0 102389
04:00+3сз249378 0.0 1021127
07:00+3сз239084 0.0 1020256
10:00+5сз348297 0.0 1019354
13:00+7сз457597 0.0 1019758
16:00+7сз676495 0.0 1017805
19:00+4с687997 0.0 1019756
22:00+3ссв588494 0.1 1021673
5 марта, пт
пт501:00+1с488395 0.1 1022343
04:00−1с378527 0.0 1023231
07:00−2с358215 0.0 1024150
10:00+2ссв45570 0.0 1026841
13:00+5ссв34420 0.0 10271478
16:00+5с34400 0.0 10281659
19:000ссв35580 0.0 1030109
22:00−1св35680 0.0 1032102
6 марта, сб
сб601:00−1вюв12630 0.0 103323
04:00−1зюз00580 0.0 103421
07:00−1сз11580 0.0 103421
10:00+3з23450 0.0 1035436
13:00+5зсз33390 0.0 10341075
16:00+6зсз34440 0.0 10331178
19:00+1сз23750 0.0 103224
22:000зсз22860 0.0 103226